Flag for Canada Weather past 2 weeks in Kawartha Lakes, Ontario, Canada

Now
9 °F

Frigid.


Feels Like: -5 °F
Forecast: 10 / 29 °F
Wind: 9 mph from North

Location: Lagoon City

Current Time: Mar 28, 2015 at 9:10:39 AM

Latest Report: Mar 28, 2015 at 8:00 AM


Visibility: N/A

Pressure: 30.17 "Hg

Humidity: 65%

Dew point: -1 °F

Location of Kawartha LakesLocation

Historic Weather in Kawartha Lakes — Graph

°F

Kawartha Lakes temperature yesterday

Maximum temperature yesterday: 32 °F (at 2:00 AM)
Minimum temperature yesterday: 17 °F (at 11:00 PM)
Average temperature yesterday: 24 °F

Past Weeks' High & Low Weather Summary

 TemperatureHumidityPressure
High43 °F (Mar 20, 6:00 PM)100% (Mar 14, 11:00 PM)30.48 "Hg (Mar 14, 11:00 PM)
Low4 °F (Mar 23, 8:00 AM)19% (Mar 19, 6:00 PM)29.65 "Hg (Mar 17, 3:00 AM)
Average27 °F71%30.06 "Hg
* Reported Mar 13 7:00 AM — Mar 28 7:00 AM, Kawartha Lakes, Weather by CustomWeather, © 2015

Note: Actual official high and low records may vary slightly from our data, if they occured in-between our weather recording intervals... More about our weather records

Advertising

Kawartha Lakes weather history for previous 24 hours

 ConditionsComfort  
Time TempWeatherWind HumidityBarometerVisibility
7:00 AM
Sat, Mar 28
8 °FFrigid.8 mph65%30.15 "HgN/A
6:00 AM9 °FFrigid.9 mph65%30.13 "HgN/A
5:00 AM9 °FFrigid.8 mph67%30.12 "HgN/A
4:00 AM10 °FFrigid.7 mph67%30.11 "HgN/A
3:00 AM11 °FCold.9 mph63%30.11 "HgN/A
2:00 AM13 °FCold.9 mph60%30.09 "HgN/A
1:00 AM14 °FCold.13 mph56%30.09 "HgN/A
12:00 AM15 °FCold.10 mph59%30.07 "HgN/A
11:00 PM
Fri, Mar 27
17 °FCold.12 mph56%30.04 "HgN/A
10:00 PM20 °FCold.14 mph50%30.03 "HgN/A
9:00 PM20 °FCold.15 mph52%30.01 "HgN/A
8:00 PM21 °FCold.15 mph54%29.98 "HgN/A
7:00 PM22 °FCold.15 mph63%29.96 "HgN/A
6:00 PM23 °FCold.13 mph60%29.93 "HgN/A
5:00 PM24 °FCold.15 mph64%29.92 "HgN/A
4:00 PM22 °FCold.15 mph64%29.90 "HgN/A
3:00 PM22 °FCold.16 mph66%29.90 "HgN/A
2:00 PM22 °FCold.14 mph66%29.91 "HgN/A
1:00 PM21 °FCold.10 mph66%29.90 "HgN/A
12:00 PM20 °FCold.14 mph74%29.90 "HgN/A
11:00 AM20 °FCold.14 mph76%29.89 "HgN/A
10:00 AM20 °FCold.15 mph82%29.87 "HgN/A
9:00 AM22 °FCold.14 mph88%29.85 "HgN/A
Weather by CustomWeather, © 2015

See weather overviewHow to use our weather pages